Wind_Speed
31 30 35 33 33 34 34 36 34 39 36 33 34 35 36 36 36 38 38 39 39 38 38 38 38 39 39
35 36 32 34 33 36 30 38 38 32 32 35 36 35 36 36 36 37 37 37 38 39 38 39 39 39 40
40 36 36 36 29 35 32 32 33 36 33 35 35 36 36 35 35 36 37 39 39 39 39 39 39 40 41
39 42 36 33 36 31 33 36 39 39 38 37 33 34 34 37 37 36 35 34 35 35 36 37 38 39 39
39 36 41 36 33 35 36 38 45 33 41 37 35 44 42 37 36 34 33 34 35 36 37 38 38 39 39
39 40 36 35 36 36 45 40 41 40 27 49 41 47 44 40 35 35 35 34 34 36 37 39 39 40 39
34 34 36 39 41 41 43 44 43 44 39 46 44 49 41 42 39 38 33 28 31 32 33 34 35 36 37
31 32 36 37 36 37 41 42 44 42 35 38 45 43 42 47 41 30 30 30 29 31 34 34 35 36 38
29 31 31 31 29 30 36 38 43 41 42 38 34 45 51 47 40 36 37 36 30 29 32 34 35 36 38
34 31 27 27 25 25 31 36 41 43 40 31 41 38 34 41 45 43 43 37 35 33 33 31 29 32 36
29 30 31 29 28 29 30 31 37 41 38 32 38 39 30 43 48 45 43 42 39 35 34 32 34 32 37
30 31 31 32 33 32 30 31 31 35 35 31 34 35 38 44 48 47 42 39 39 34 37 41 37 33 29
31 31 33 33 31 32 31 32 32 32 32 30 30 31 33 40 45 47 44 41 35 35 41 41 37 31 29
29 32 33 31 32 32 32 34 36 37 33 30 27 27 32 36 38 43 38 38 43 41 42 41 37 27 24
31 33 32 33 33 33 32 34 33 36 38 33 31 32 31 32 35 33 36 39 37 39 40 40 38 30 25
32 32 33 34 34 33 31 33 33 35 34 35 37 37 35 32 20 30 35 38 39 39 37 35 39 33 24
32 32 32 32 32 34 34 34 35 34 34 34 32 31 33 35 41 31 34 36 40 39 35 32 35 35 24
Wind_Direction
300 301 305 307 304 305 297 301 304 297 298 300 298 296 294 293 291 289 287 286 284 283 280 279 277 274 271
303 307 307 306 306 298 305 297 302 304 301 300 298 297 295 293 291 291 289 287 284 283 280 278 276 274 272
303 305 304 306 309 304 310 306 299 302 304 300 300 298 298 296 293 291 288 285 283 281 279 277 274 273 271
302 306 307 307 311 310 308 305 306 306 308 303 302 300 297 294 294 293 290 287 285 282 280 277 275 273 271
302 303 309 311 312 309 307 307 310 309 308 311 302 314 315 308 305 298 296 294 290 286 282 279 277 275 273
303 303 305 306 309 307 308 310 307 314 304 310 316 315 312 313 305 298 297 295 291 287 283 279 277 275 273
300 300 301 302 306 311 310 304 301 304 310 306 314 311 314 318 314 307 303 301 295 290 287 284 280 276 273
298 297 298 305 307 304 300 300 303 306 306 296 315 313 315 310 318 322 326 314 302 296 293 288 284 279 276
293 300 301 300 300 302 300 303 300 302 309 306 308 306 315 318 326 324 320 322 323 308 301 296 293 287 280
308 310 305 304 304 300 298 295 295 301 311 303 308 313 315 313 317 322 327 329 329 324 309 302 299 295 289
311 308 313 314 315 310 306 299 296 294 313 305 301 309 297 305 315 321 325 327 326 325 326 312 311 301 290
307 315 319 319 317 316 315 313 310 304 314 315 306 305 302 302 302 320 325 327 326 322 325 320 317 309 295
314 313 319 319 321 323 321 322 319 319 323 322 314 309 303 299 297 309 311 325 328 321 326 324 327 325 316
312 319 323 324 324 328 323 327 323 326 331 328 321 311 308 308 308 305 319 304 323 320 326 332 332 327 323
324 324 328 329 329 331 328 326 318 321 328 335 332 323 316 315 307 314 316 317 315 318 326 329 331 330 321
329 329 329 328 329 330 328 328 320 320 319 327 326 323 328 323 317 312 319 321 327 328 328 326 326 338 327
330 330 329 328 328 329 330 328 325 322 320 319 320 323 318 314 325 331 322 331 331 324 324 327 325 338 338
Height
1437 1434 1429 1424 1420 1415 1410 1404 1397 1393 1389 1385 1381 1377 1372 1367 1363 1359 1355 1351 1348 1346 1344 1343 1341 1340 1340
1429 1425 1423 1419 1414 1408 1403 1398 1390 1385 1382 1377 1372 1368 1363 1358 1354 1349 1345 1341 1338 1335 1333 1332 1330 1329 1328
1419 1419 1415 1412 1405 1401 1394 1389 1384 1379 1373 1368 1363 1358 1352 1349 1344 1340 1336 1332 1328 1324 1322 1319 1318 1317 1316
1417 1411 1408 1404 1400 1393 1387 1383 1374 1370 1364 1359 1355 1349 1344 1339 1333 1328 1324 1320 1317 1313 1310 1307 1305 1304 1303
1412 1406 1400 1396 1393 1387 1381 1374 1365 1363 1356 1347 1346 1337 1331 1327 1322 1316 1313 1310 1306 1302 1299 1296 1294 1292 1291
1408 1401 1395 1391 1387 1381 1374 1367 1357 1356 1350 1338 1336 1326 1322 1317 1312 1308 1304 1299 1295 1292 1288 1285 1282 1280 1278
1402 1397 1390 1386 1381 1373 1367 1362 1354 1347 1344 1330 1327 1316 1313 1306 1302 1298 1293 1289 1285 1281 1277 1273 1270 1267 1265
1398 1391 1386 1380 1375 1370 1362 1354 1346 1341 1339 1328 1320 1309 1303 1298 1293 1288 1283 1279 1276 1272 1267 1262 1258 1255 1252
1390 1385 1380 1376 1371 1364 1356 1349 1338 1333 1330 1324 1314 1304 1294 1284 1281 1278 1276 1272 1266 1261 1257 1252 1247 1242 1238
1380 1376 1372 1367 1364 1359 1352 1345 1337 1326 1323 1320 1310 1305 1285 1276 1274 1269 1265 1261 1256 1251 1248 1242 1238 1232 1226
1374 1370 1365 1360 1355 1351 1346 1341 1332 1323 1318 1315 1306 1300 1296 1276 1263 1262 1258 1251 1247 1242 1237 1232 1227 1223 1215
1370 1364 1359 1353 1348 1343 1337 1332 1326 1317 1311 1308 1300 1295 1287 1277 1264 1254 1251 1245 1240 1234 1228 1221 1215 1209 1204
1366 1360 1355 1348 1342 1336 1330 1324 1317 1311 1305 1300 1294 1288 1283 1274 1262 1251 1245 1238 1233 1227 1220 1213 1204 1197 1189
1362 1355 1349 1343 1336 1330 1323 1316 1309 1301 1299 1293 1288 1283 1275 1268 1261 1248 1242 1235 1225 1220 1213 1204 1197 1190 1184
1356 1350 1343 1337 1330 1325 1318 1311 1305 1297 1289 1285 1280 1276 1269 1262 1253 1246 1237 1230 1224 1215 1207 1196 1190 1183 1176
1351 1345 1338 1332 1325 1319 1314 1307 1300 1293 1287 1280 1274 1266 1259 1253 1250 1241 1234 1226 1217 1209 1202 1193 1182 1177 1170
1346 1340 1334 1328 1322 1314 1308 1302 1295 1289 1283 1278 1272 1266 1257 1247 1239 1238 1230 1220 1211 1203 1197 1190 1181 1172 1166